Starlink 3520

operational
NORAD ID: 51741 Int'l Des: 2022-016 Owner: SPXS Country: US Constellation: starlink
LEOCIRCULAR

About Starlink 3520

Description loading...

Live Position

Loading 3D Globe...

Upcoming Passes

Altitude History

Altitude vs Time

uPlot chart will show altitude changes over time

Two-Line Element Set

1 51741U 22016AD 25260.29177631 .00000873 00000-0 72954-4 0 9999
2 51741 53.2186 17.5466 0000506 120.1811 239.9231 15.08828199197387
Epoch: Sep 17, 2025 • Age: 12 hours

Current Status

Altitude 555.9 km
Velocity 7.58 km/s
Sub-Earth Point -46.70°S, 37.8°W
Launch Date Feb 21, 2022
Age 3.5 years
Type internet

Technical Details

Classification Payload
Mass 297.00 kg
Dry Mass 275.00 kg
Total Mass 297.00 kg
Length 0.20 m
Diameter 2.80 m
Span 9.00 m
Shape Box + pan
Manufacturer SPXS
Bus Type Starlink
Phase Status In Orbit
Owner/State SPXS/US

Large Constellations

Loading constellations...